Current weather by "City, St" or "zip code"  
 

Current Conditions: San Antonio, San Antonio International Airport, TX

Partly Cloudy


56.0 F

Last Updated on Oct 23 2020, 8:51 pm CDT
Humidity: 72%
Wind Speed: N 19.6 G 29.9 mph
Barometer 30.13 in
Dewpoint: 46.9 F
Visibility: 10.00 mi
Precip: --
Heat Index: NA
Wind Chill: 52 F
Current conditions at:

San Antonio, San Antonio International Airport, TX (KSAT)

Lat: 29.53278 Lon: 98.46361

Local Radar Image active severe weather and emergency alerts image image weather storm and storm spotter reports image weather observation monitoring service image
Local
Radar
Active
Alerts
Storm Reports Obs
Monitoring

Sign-up For Email & Text Message Weather Alert Notification Services



Advertise Here

Observation History for San Antonio, San Antonio International Airport, TX


Time Wind
(mph)
Vis
(mi)
Weather Precip (in) Temperature (F) Relative
Humidity
Wind
Chill
(F)
Heat
Index
(F)
Pressure
Air Dwpt altimeter
(in)
sea level
(mb)
Rmks
8:51 pm CDT N 19.6 G 29.9 10.00 Partly Cloudy -- 56.0 46.9 72% 52 NA 30.13 1019.1
7:51 pm CDT N 18.4 G 32.2 10.00 Partly Cloudy -- 58.0 48.9 72% 54 NA 30.11 1018.1
6:51 pm CDT N 21.9 G 31.1 10.00 A Few Clouds and Breezy -- 63.0 54.0 73% 60 NA 30.06 1016.3
5:51 pm CDT N 20.7 G 29.9 10.00 Mostly Cloudy and Breezy -- 73.0 61.0 66% NA NA 30.02 1014.8
4:51 pm CDT N 18.4 10.00 Mostly Cloudy -- 78.0 64.0 62% NA NA 30.00 1014.0
3:51 pm CDT 4.6 10.00 Mostly Cloudy -- 87.0 66.0 50% NA 89 29.96 1012.8
2:51 pm CDT 4.6 10.00 Mostly Cloudy -- 87.0 66.0 50% NA 89 29.97 1013.1
1:51 pm CDT NE 5.8 10.00 Mostly Cloudy Trace 85.0 69.1 59% NA 89 30.00 1014.0
12:51 pm CDT N 0.0 10.00 Mostly Cloudy -- 82.0 69.1 65% NA 85 30.03 1014.9
11:51 am CDT N 0.0 10.00 Overcast -- 81.0 68.0 65% NA 84 30.05 1015.5
10:51 am CDT SE 4.6 10.00 Overcast -- 78.0 69.1 74% NA NA 30.01 1014.6
9:51 am CDT S 5.8 10.00 Mostly Cloudy Trace 77.0 70.0 79% NA NA 29.99 1013.8
8:51 am CDT S 4.6 10.00 Light Rain Trace 76.0 71.1 85% NA NA 29.95 1012.5
7:51 am CDT S 9.2 10.00 Overcast Trace 76.0 71.1 85% NA NA 29.93 1011.6
6:51 am CDT S 10.4 10.00 Light Rain Trace 75.0 71.1 88% NA NA 29.92 1011.3
5:51 am CDT S 8.1 10.00 Overcast -- 75.0 71.1 88% NA NA 29.92 1011.2
4:51 am CDT SE 8.1 10.00 Overcast -- 75.0 71.1 88% NA NA 29.92 1011.3
3:51 am CDT SE 6.9 10.00 Overcast -- 75.0 70.0 84% NA NA 29.93 1011.5
2:51 am CDT S 10.4 10.00 Overcast -- 76.0 70.0 82% NA NA 29.93 1011.8
1:51 am CDT SE 11.5 10.00 Overcast -- 76.0 70.0 82% NA NA 29.93 1011.7
12:51 am CDT SE 15.0 10.00 Overcast -- 76.0 70.0 82% NA NA 29.93 1011.8
11:51 pm CDT SE 15.0 G 23.0 10.00 Mostly Cloudy -- 76.0 71.1 85% NA NA 29.94 1011.9
10:51 pm CDT SE 12.7 10.00 Partly Cloudy -- 77.0 70.0 79% NA NA 29.93 1011.5
9:51 pm CDT SE 15.0 10.00 Fair -- 79.0 69.1 72% NA NA 29.92 1011.3

Regional Weather Observation


Castroville Municipal Airport, TX (KCVB)

Fair
61.0 F

San Antonio - Kelly Field, TX (KSKF)

Fair
58.0 F

Randolph Air Force Base, TX (KRND)

Overcast
56.0 F

San Antonio, Stinson Municipal Airport, TX (KSSF)

A Few Clouds
57.0 F

New Braunfels Regional Airport, TX (KBAZ)

Partly Cloudy
58.0 F

Kerrville, Kerrville Municipal Airport/Louis Schreiner Field, TX (KERV)

Overcast
51.0 F